星链-36834(STARLINK-36834)
导读
STARLINK-36834(NORAD编号67959)是SpaceX星链(Starlink)星座的卫星之一,属于近地轨道宽带互联网卫星。星链星座由SpaceX部署,旨在全球范围内提供高速、低延迟的卫星互联网服务。STARLINK-36834继承星链卫星紧凑平板设计,支持星间激光通信,可融入全球激光互联网络。2026年SpaceX启动降轨计划,将包括该卫星在内的约4400颗星链卫星轨道高度从550公里降至480公里,提升太空安全性,减少空间碎片风险。
Basic Information
目录编号:
67959
目录名称:
STARLINK-36834
国际标识:
2026-037AD
轨道中心:
EARTH
卫星名称:
星链-36834
卫星全名:
星链-36834(STARLINK-36834)
卫星状态:
在轨 (已飞行192 天)
发射日期:
2026-02-24 UTC
国别 :
美国
(US)
星等 :
--
Orbit Information
| 数据来源 | 国际轨道数据 |
| 星历时间: | 2026-09-03T16:18:03+0800 22小时前 查看轨道信息 |
| 半长轴: | 6861.138km |
| 偏心率: | 0.0001538 |
| 轨道倾角: | 43.001° |
| 近地点辐角 | 269.724° |
| 升交点赤经 | 267.177° |
| 平近点角 | 90.343° |
| 近地点: | 481.945km |
| 远地点: | 484.057km |
| 周期: | 94.266分钟 |
| 每日圈数: | 15.275963 |
Detailed Information
固有亮度:
5
最大亮度:
2.5
卫星平台:
Starlink V1.0
覆盖范围:
全球
运营商:
太空探索技术公司
运营商所在国:
美国
制造商(研发单位):
太空探索技术公司
制造商所在国:
美国
使用方式:
暂无
Satellite Introduction
Starlink 计划是 SpaceX 推出的全球卫星互联网项目,通过发射低轨道卫星,为全球尤其是偏远地区提供高速、低延迟的互联网服务。自 2019 年起,Starlink 已部署数千颗卫星,旨在缩小全球数字鸿沟,推动互联网普及。该项目还为军事、航空等行业提供通信支持,带来广泛经济效益。
2D Orbit Map
3D Orbit Map
Orbit Altitude Analysis Chart
Orbit Inclination Analysis Chart
Orbit Comprehensive Analysis Chart
View Comprehensive ChartConjunction Data List
| Event ID | Objects | TCA | Miss Dist (km) | Collision Risk Probability | Collision Risk Index (CRI) | Action |
|---|---|---|---|---|---|---|
| CDM_260905-110405-788506-795921 |
STARLINK-30279
(57885)
STARLINK-36834
(67959) | 2026-09-05T 11:04:24+0000 |
1.290 km
极远距离 | 7.064575E-6 低风险 | 0.52 | |
| CDM_260905-123805-788506-795921 |
STARLINK-30279
(57885)
STARLINK-36834
(67959) | 2026-09-05T 12:38:33+0000 |
1.334 km
极远距离 | 6.303158E-6 低风险 | 0.51 | |
| CDM_260905-073505-764806-795921 |
STARLINK-30243
(57648)
STARLINK-36834
(67959) | 2026-09-05T 07:35:39+0000 |
2.352 km
极远距离 | 1.35058E-6 低风险 | 0.38 | |
| CDM_260905-090905-764806-795921 |
STARLINK-30243
(57648)
STARLINK-36834
(67959) | 2026-09-05T 09:09:48+0000 |
2.644 km
极远距离 | 1.105263E-6 低风险 | 0.36 | |
| CDM_260905-093005-788506-795921 |
STARLINK-30279
(57885)
STARLINK-36834
(67959) | 2026-09-05T 09:30:15+0000 |
2.984 km
极远距离 | 9.278609E-7 极低风险 | 0.34 |

